Butte, MT

5:35 PM MST on December 12, 2017 (GMT -0700)
Mooney

Weather History for KBTM - August, 2013

Change the Weather History Date:

Friday, August 2, 2013

  Actual Average Record
Temperature  
Mean Temperature 58 °F 64 °F  
Max Temperature 71 °F 83 °F 95 °F (1934)
Min Temperature 45 °F 46 °F 30 °F (1919)
Degree Days  
Heating Degree Days 7 2  
Month to date heating degree days 8 4  
Since 1 June heating degree days 269 391  
Since 1 July heating degree days 26 104  
Cooling Degree Days 0 2  
Month to date cooling degree days 0 4  
Year to date cooling degree days 81 55  
Since 1 June cooling degree days 81 55  
Growing Degree Days 8 (Base 50)    
Moisture  
Dew Point 44 °F    
Average Humidity 63    
Maximum Humidity 100    
Minimum Humidity 26    
Precipitation  
Precipitation 0.01 in 0.04 in 2.02 in (1943)
Month to date precipitation 0.62 0.08  
Year to date precipitation 6.29 8.60  
Sea Level Pressure  
Sea Level Pressure 30.00 in    
Wind  
Wind Speed 6 mph (NW)    
Max Wind Speed 18 mph    
Max Gust Speed 30 mph    
Visibility 10 miles    
Events Rain , Thunderstorm    
T = Trace of Precipitation, MM = Missing Value Source: NWS Daily Summary

Daily Weather History Graph

Daily Weather History Graph

Search for Another Location

Airport or City:

Trip Planner

Search our weather history database for the weather conditions in past years. The results will help you decide how hot, cold, wet, or windy it might be!

Date:

Astronomy

Aug. 02, 2013 Rise Set
Actual Time 6:14 AM MDT 8:57 PM MDT
Civil Twilight 5:39 AM MDT 9:31 PM MDT
Nautical Twilight 4:56 AM MDT 10:14 PM MDT
Astronomical Twilight 4:05 AM MDT 11:05 PM MDT
Moon 2:35 AM MDT (8/2) 6:00 PM MDT (8/2)
Length of Visible Light 15h 51m
Length of Day
14h 43m
Waning Crescent, 15% of the Moon is Illuminated
Aug 2
Waning Crescent
Aug 6
New
Aug 14
First Quarter
Aug 20
Full
Aug 28
Last Quarter

Hourly Weather History & Observations

Time (MDT) Temp. Windchill Dew Point Humidity Pressure Visibility Wind Dir Wind Speed Gust Speed Precip Events Conditions
12:03 AM 53.6 °F - 48.2 °F 82% 30.03 in 10.0 mi West 3.5 mph - N/A Thunderstorm Overcast
12:21 AM 53.6 °F - 48.2 °F 82% 30.06 in 10.0 mi WNW 11.5 mph 17.3 mph N/A Thunderstorm Overcast
12:41 AM 51.8 °F - 50.0 °F 94% 30.09 in 3.0 mi Variable 4.6 mph 18.4 mph 0.12 in Rain , Thunderstorm Heavy Thunderstorms and Rain
12:53 AM 52.0 °F - 50.0 °F 93% 29.94 in 8.0 mi NNE 10.4 mph - 0.14 in Rain , Thunderstorm Light Rain
1:27 AM 53.6 °F - 46.4 °F 77% 30.07 in 10.0 mi North 4.6 mph - 0.02 in Thunderstorm Overcast
1:48 AM 53.6 °F - 46.4 °F 77% 30.05 in 10.0 mi Calm Calm - 0.02 in   Overcast
1:53 AM 52.0 °F - 46.9 °F 83% 29.90 in 10.0 mi Calm Calm - 0.02 in   Overcast
2:53 AM 48.9 °F - 46.9 °F 93% 29.92 in 10.0 mi SE 8.1 mph - N/A   Clear
3:53 AM 48.0 °F - 46.0 °F 93% 29.94 in 10.0 mi Calm Calm - N/A   Clear
4:53 AM 46.9 °F - 46.0 °F 97% 29.97 in 10.0 mi Calm Calm - N/A   Overcast
5:53 AM 46.0 °F 43.9 °F 45.0 °F 96% 29.98 in 10.0 mi WSW 4.6 mph - N/A   Scattered Clouds
6:53 AM 45.0 °F - 44.1 °F 97% 30.00 in 10.0 mi Calm Calm - N/A   Partly Cloudy
7:53 AM 46.9 °F - 45.0 °F 93% 30.01 in 10.0 mi Calm Calm - N/A   Partly Cloudy
8:53 AM 51.1 °F - 46.9 °F 86% 30.01 in 10.0 mi Calm Calm - N/A   Clear
9:53 AM 59.0 °F - 45.0 °F 60% 29.99 in 10.0 mi Variable 4.6 mph - N/A   Clear
10:53 AM 61.0 °F - 45.0 °F 56% 29.99 in 10.0 mi North 3.5 mph - N/A   Partly Cloudy
11:53 AM 63.0 °F - 43.0 °F 48% 29.99 in 10.0 mi ENE 4.6 mph - N/A   Scattered Clouds
12:53 PM 66.9 °F - 37.0 °F 33% 29.97 in 10.0 mi WSW 15.0 mph - N/A   Mostly Cloudy
1:53 PM 69.1 °F - 34.0 °F 27% 29.95 in 10.0 mi West 11.5 mph 20.7 mph N/A   Clear
2:53 PM 71.1 °F - 35.1 °F 27% 29.96 in 10.0 mi WNW 9.2 mph - N/A   Clear
3:53 PM 70.0 °F - 39.0 °F 32% 29.96 in 10.0 mi WNW 13.8 mph 19.6 mph N/A   Clear
4:53 PM 71.1 °F - 39.0 °F 31% 29.96 in 10.0 mi NW 13.8 mph 20.7 mph N/A   Clear
5:53 PM 66.9 °F - 41.0 °F 39% 29.98 in 10.0 mi NW 11.5 mph 21.9 mph N/A   Clear
6:53 PM 66.9 °F - 41.0 °F 39% 29.99 in 10.0 mi NW 12.7 mph - N/A   Clear
7:53 PM 66.0 °F - 41.0 °F 40% 30.00 in 10.0 mi WNW 9.2 mph - N/A   Clear
8:53 PM 63.0 °F - 43.0 °F 48% 30.02 in 10.0 mi North 6.9 mph - N/A   Clear
9:53 PM 60.1 °F - 43.0 °F 53% 30.04 in 10.0 mi North 5.8 mph - N/A   Clear
10:53 PM 57.9 °F - 44.1 °F 60% 30.06 in 10.0 mi WNW 8.1 mph - N/A   Clear
11:53 PM 53.1 °F - 44.1 °F 71% 30.08 in 10.0 mi Calm Calm - N/A   Scattered Clouds